RH
34 34 32 34 30 28 24 26 28 22 19 19 21 23 25 25 25 25 28 28 34 34 28 29 31 52 63 67 80 81 74 80 81 92 100 100 100 100 100 100 100 96 83
40 40 49 38 35 34 29 30 34 28 26 25 20 20 21 27 30 30 26 26 29 35 37 36 26 22 28 59 72 77 81 70 78 82 93 100 100 100 100 100 100 100 100
38 87 67 47 51 45 43 40 40 39 41 51 44 34 23 29 31 29 27 25 24 25 31 32 33 25 21 22 30 72 99 84 85 86 100 100 99 100 100 100 100 100 100
53 90 91 68 58 54 51 53 52 52 46 51 58 47 31 26 24 25 24 28 24 23 23 26 33 32 28 21 22 21 62 98 94 87 87 98 95 100 100 100 100 100 100
57 63 69 59 49 45 51 51 55 58 65 59 50 37 34 29 28 30 32 28 29 27 27 25 27 32 31 28 25 20 19 30 79 100 98 85 96 97 100 95 97 100 100
60 59 54 44 40 45 49 51 54 67 66 56 56 47 42 39 32 31 33 32 36 32 31 32 28 27 34 34 32 26 23 22 46 84 100 100 100 98 97 96 99 88 100
33 35 37 68 60 67 60 71 78 70 65 61 52 44 41 40 39 36 37 38 34 30 32 29 26 30 32 36 35 37 32 26 51 80 100 100 100 100 100 100 100 100 95
52 55 55 65 79 71 78 80 88 85 65 61 52 47 51 49 45 40 43 41 36 36 34 31 28 30 32 40 40 46 40 37 38 88 100 100 100 100 100 100 100 100 100
83 90 100 100 89 91 87 93 83 73 64 57 55 47 42 45 46 45 46 49 49 45 39 36 32 36 38 41 52 54 54 44 47 45 98 100 100 100 100 100 100 100 100
98 100 100 100 100 100 97 88 79 74 66 57 58 61 66 58 53 59 60 53 54 45 42 41 38 47 47 49 59 80 76 55 56 46 53 85 100 100 100 100 100 100 100
100 100 100 100 100 100 96 92 80 81 75 71 69 70 70 53 53 61 65 56 62 51 47 46 49 59 59 58 69 97 100 89 79 60 52 68 90 100 100 100 100 100 100
96 100 96 94 100 100 94 87 89 77 78 72 65 58 50 56 62 70 66 60 59 55 54 55 61 66 70 72 79 98 100 100 100 93 76 77 91 98 100 79 75 99 100
100 100 100 100 100 97 91 93 87 81 73 64 65 56 54 69 68 77 76 84 70 68 66 66 70 77 81 86 91 100 100 100 100 100 100 100 94 86 94 89 75 78 92
100 100 100 100 100 100 98 84 79 79 69 59 52 53 74 71 84 82 79 78 77 80 73 73 85 88 91 98 100 100 100 100 100 100 97 100 100 95 93 71 72 68 79
100 100 100 100 100 100 94 81 82 73 66 60 59 65 72 96 91 86 84 84 76 78 79 87 96 98 100 100 100 100 100 100 100 100 100 100 100 100 90 70 68 69 68
100 100 100 100 100 92 84 85 73 63 62 59 67 72 88 97 100 87 92 88 86 80 99 95 100 100 100 100 100 100 100 100 100 100 100 100 100 100 100 90 93 98 78
100 100 94 85 77 69 71 72 61 59 56 71 71 95 100 100 100 83 94 77 86 93 99 98 93 94 99 100 100 100 100 100 100 100 98 94 98 100 100 100 100 100 91
100 100 94 77 67 63 60 53 54 60 64 72 98 100 100 87 89 86 85 78 89 99 96 90 95 100 100 100 100 100 100 100 100 100 100 100 100 96 80 75 85 94 89
98 92 80 63 61 63 55 54 65 70 84 99 100 100 87 71 85 69 90 98 94 95 73 94 100 100 100 100 100 100 100 100 100 100 100 100 100 100 100 99 96 96 100
85 74 67 58 53 56 62 74 82 99 94 98 100 88 75 74 62 84 97 97 93 74 88 100 100 100 100 100 100 100 100 100 100 100 100 100 100 99 98 98 98 93 89
76 72 66 54 56 68 81 93 95 94 97 97 89 58 70 51 46 77 84 69 81 83 88 99 100 100 100 100 100 100 100 100 100 100 100 100 100 99 98 97 98 98 98
87 74 70 62 77 94 90 98 99 100 95 74 47 67 49 35 45 61 56 75 90 91 93 100 100 100 100 100 100 100 100 100 100 98 96 96 96 99 99 99 100 99 97
81 66 80 96 95 94 99 100 98 98 69 36 41 43 42 38 38 48 69 91 100 99 99 100 100 100 97 98 97 100 100 100 100 100 99 95 95 97 98 96 95 93 94
98 98 94 100 96 95 98 90 99 78 33 23 29 35 35 32 36 68 82 88 99 98 100 100 99 98 96 98 100 100 100 100 100 99 100 100 100 99 99 100 99 97 95
97 100 96 94 96 100 90 80 72 28 20 28 26 31 32 31 45 84 93 99 99 100 100 99 100 98 100 100 100 100 100 100 100 100 100 99 96 94 94 92 89 85 82
86 96 100 100 90 80 74 43 22 19 38 24 31 28 26 40 62 75 86 98 98 99 98 97 95 98 99 100 100 100 100 100 100 100 100 100 96 92 88 79 70 62 55
Wind_Speed
29 31 32 36 34 32 34 36 35 37 34 37 30 31 33 32 32 35 32 34 37 48 58 59 61 71 77 76 76 77 79 77 76 71 69 71 72 71 71 69 69 66 65
29 30 32 37 36 36 39 40 41 42 45 46 41 43 46 40 37 41 38 42 38 38 40 52 66 67 71 76 81 76 77 79 75 75 74 71 73 75 75 73 73 72 71
32 33 35 38 40 41 46 44 47 50 52 51 52 51 52 53 54 51 50 47 49 47 48 54 58 69 69 68 77 82 79 76 76 77 79 78 74 74 73 74 76 75 72
34 37 39 42 44 48 50 51 52 53 54 55 58 57 59 61 60 60 56 59 57 56 55 52 59 64 66 67 72 77 84 84 81 80 79 80 81 80 80 80 78 77 75
37 39 44 46 47 51 53 52 53 55 57 58 60 62 65 66 67 67 68 66 65 65 63 61 58 61 70 71 75 76 79 86 89 86 84 83 84 87 87 85 84 79 79
43 44 48 49 50 51 55 57 58 59 60 62 63 66 69 71 73 74 76 76 76 75 73 67 64 63 66 73 78 78 79 80 88 92 90 86 85 88 85 84 85 84 82
46 49 52 54 56 57 61 64 65 67 68 68 71 72 73 74 77 80 82 83 82 84 82 76 70 66 66 73 79 84 86 86 88 89 92 92 90 88 88 84 85 85 84
53 54 55 58 60 64 66 68 70 71 72 74 76 77 78 81 84 86 87 87 90 89 87 82 76 69 68 72 77 82 89 90 91 95 94 92 92 93 91 91 88 86 87
59 62 62 64 68 70 73 74 74 74 78 79 80 81 85 87 90 92 92 91 93 92 89 86 78 70 67 71 75 79 84 90 96 97 98 97 94 94 92 92 89 87 89
66 67 68 70 74 75 77 77 77 79 82 82 84 87 90 93 96 96 97 97 98 96 91 85 77 67 64 69 74 78 84 85 93 99 98 97 102 99 98 92 91 89 89
69 70 73 74 76 77 81 82 84 87 88 90 90 93 96 100 101 101 103 101 96 92 87 80 71 63 62 67 74 77 82 86 90 94 99 96 95 101 102 101 101 93 93
71 74 76 79 81 83 86 89 91 93 93 95 97 100 101 103 107 105 105 99 95 89 81 73 63 60 61 64 71 77 80 87 93 94 95 95 95 93 93 94 93 100 98
78 80 82 84 86 89 91 93 95 96 98 100 102 105 107 109 110 110 102 98 90 81 72 63 58 57 58 62 68 73 78 85 93 92 93 96 95 94 94 94 91 92 96
85 87 88 90 92 94 93 97 98 101 102 105 107 109 111 115 115 109 103 93 82 74 64 56 53 54 56 60 65 70 76 81 87 91 89 91 88 92 97 96 90 89 91
88 90 91 97 98 97 99 103 102 106 108 109 112 113 116 116 116 106 98 84 74 65 56 52 49 52 54 59 61 65 70 74 79 84 87 87 85 87 93 90 88 89 89
92 94 99 100 102 104 105 106 108 110 112 113 116 117 118 119 113 101 85 77 66 56 50 49 47 49 52 57 56 61 66 69 72 77 79 81 82 83 88 88 89 93 92
98 99 101 105 107 109 111 113 114 114 114 115 118 119 118 111 107 88 77 69 55 49 46 45 44 46 48 52 56 59 62 65 68 71 75 76 77 82 85 85 86 85 87
101 104 108 110 112 113 116 117 117 117 119 120 120 120 114 103 87 75 65 57 46 44 43 42 40 42 45 47 51 55 58 60 63 66 68 69 72 78 79 80 82 84 87
107 110 113 116 117 117 118 120 118 120 120 124 127 119 103 81 70 61 50 47 43 41 41 38 38 40 43 46 49 51 54 56 59 63 64 65 68 72 75 78 81 85 88
114 118 118 119 121 121 122 120 122 123 125 125 117 96 81 65 54 46 42 42 42 40 36 36 38 40 42 45 47 49 51 54 57 59 60 62 65 68 72 74 76 79 81
120 123 124 125 126 125 124 126 126 127 128 119 96 79 64 51 44 41 39 39 39 40 38 36 38 39 41 44 46 47 49 51 54 55 58 60 62 64 66 70 72 74 75
126 127 128 131 128 126 127 128 128 127 120 96 77 68 53 46 41 38 38 37 39 40 39 36 38 38 40 43 43 45 47 49 52 53 55 57 59 61 64 65 68 69 71
133 133 131 130 130 130 131 129 125 117 98 76 67 58 50 42 38 36 36 36 39 40 37 36 38 40 41 41 42 41 41 44 46 49 52 55 57 60 63 65 67 69 71
136 135 133 134 135 133 127 121 115 101 79 67 59 53 45 40 36 34 36 38 39 39 37 38 40 38 37 37 38 39 40 42 45 47 50 52 54 56 58 62 64 66 68
137 137 137 135 131 124 116 105 99 82 70 58 54 46 41 38 32 32 36 38 39 38 39 38 38 36 35 35 36 39 41 42 43 45 47 49 52 55 58 60 61 62 63
136 136 131 128 118 107 103 89 81 74 57 54 47 41 39 34 30 33 35 36 39 39 37 37 35 34 32 33 36 38 39 40 42 44 46 49 50 52 54 55 55 56 57
Wind_Direction
349 345 346 344 346 343 343 339 338 337 322 320 312 323 322 309 308 285 283 280 268 266 265 262 258 253 251 249 249 248 249 248 252 250 247 248 250 251 252 254 256 255 256
341 334 336 338 339 337 330 331 332 333 330 328 329 322 316 323 308 315 306 293 289 272 264 261 260 258 254 251 248 247 247 247 248 251 250 248 249 249 250 251 253 254 256
330 326 327 328 331 328 330 327 327 327 325 324 322 323 317 317 317 315 310 309 296 287 275 264 262 261 256 255 252 247 246 244 243 246 247 248 247 250 251 252 252 253 254
325 322 317 319 320 324 326 321 320 321 320 320 319 318 317 315 313 313 309 311 308 298 290 282 261 261 256 253 253 250 244 243 244 244 245 246 248 247 250 252 254 254 254
317 319 316 316 314 317 319 318 317 315 314 314 314 314 313 313 313 312 311 310 309 306 300 288 280 264 257 250 248 251 250 246 242 241 245 246 248 247 248 249 250 251 253
311 312 314 315 313 315 316 317 315 314 314 312 311 311 310 310 310 309 309 309 309 308 304 298 285 268 260 249 248 246 246 245 244 242 241 244 245 249 247 249 250 248 250
311 309 309 308 310 307 310 312 312 312 312 312 309 309 309 309 308 308 307 308 307 306 304 300 292 279 262 252 243 244 243 242 241 242 244 242 241 245 249 249 250 250 251
305 302 304 305 304 308 309 309 311 309 310 310 309 311 310 309 308 308 307 307 305 305 303 298 290 281 262 251 243 240 242 242 239 238 239 242 244 244 245 248 249 250 253
304 305 304 301 304 304 307 308 309 309 309 309 310 311 310 309 308 306 306 305 304 301 300 296 290 280 262 249 243 239 241 241 241 238 237 238 241 242 243 245 248 251 253
302 302 302 302 302 302 306 307 307 307 308 309 310 309 310 311 310 309 306 305 303 301 298 295 288 277 260 246 241 239 240 241 242 240 237 237 239 241 242 244 246 247 247
300 301 299 301 302 304 307 307 307 307 309 310 309 309 308 309 311 310 307 303 302 299 296 293 284 273 258 242 237 237 240 240 242 241 240 238 239 241 243 244 244 245 247
300 300 300 301 303 303 304 306 305 306 307 308 308 308 308 310 309 309 307 303 301 298 294 288 278 269 254 242 238 237 238 239 240 241 240 240 239 241 243 245 246 244 244
300 301 302 302 303 304 303 304 304 305 306 307 308 307 310 311 310 310 305 304 301 297 291 282 274 264 250 242 238 238 238 238 239 241 241 241 242 242 242 244 246 245 245
300 302 303 303 303 303 303 303 304 305 307 307 308 309 311 311 310 308 306 302 299 295 286 277 268 257 249 243 241 241 239 239 239 240 241 242 243 244 244 244 244 245 246
300 300 300 302 303 302 301 304 305 306 306 308 309 309 311 311 310 306 304 299 297 290 282 273 262 253 247 245 243 242 241 240 239 240 242 243 243 244 246 247 246 247 248
300 300 301 302 301 302 302 305 305 304 306 309 309 310 311 309 308 305 301 296 293 285 276 269 258 250 246 243 241 240 240 241 241 240 241 241 243 243 247 248 249 250 251
300 300 301 301 301 302 303 304 304 306 308 308 310 311 309 307 305 300 296 291 286 278 269 263 256 250 244 241 239 239 239 240 242 242 244 244 243 241 243 246 247 249 252
298 298 298 300 302 303 303 304 305 306 308 311 312 309 308 304 299 295 290 284 277 269 264 259 253 246 242 239 239 241 239 238 239 242 244 245 246 249 250 248 248 248 251
297 297 298 300 302 303 304 306 307 308 310 310 311 309 305 300 295 290 280 276 270 262 259 254 247 242 240 239 240 240 241 241 242 242 242 244 246 247 249 249 249 250 250
296 297 299 301 302 303 305 306 308 309 310 310 311 307 302 297 290 281 272 266 262 260 254 246 244 241 241 242 240 241 242 242 242 243 244 246 246 247 248 250 252 252 253
296 298 300 302 304 305 306 308 308 308 310 311 307 304 298 292 288 276 266 260 255 252 248 242 241 242 241 241 242 242 242 241 243 245 246 246 247 248 250 250 252 253 254
298 300 303 302 305 306 305 306 306 309 311 308 304 302 293 290 285 271 261 253 247 246 244 241 242 241 242 242 243 245 245 244 246 247 246 246 248 250 251 252 253 253 255
299 300 302 302 301 303 305 305 307 309 309 303 302 297 294 290 279 264 252 243 240 241 243 241 241 241 242 242 245 247 248 247 247 247 248 249 249 251 252 252 253 254 256
299 299 299 300 302 301 303 305 307 308 302 299 297 293 292 285 273 253 243 236 236 239 239 239 241 246 246 246 246 247 249 249 250 251 251 251 252 252 253 255 256 257 259
296 298 298 299 300 303 302 306 305 301 297 295 291 290 286 279 262 246 239 236 235 236 237 238 241 243 242 245 246 247 248 250 253 254 255 255 255 255 256 258 259 261 262
294 295 297 299 300 301 303 302 298 294 289 288 284 283 280 268 250 240 236 234 235 237 239 240 242 240 242 243 244 247 250 252 255 257 257 258 258 258 258 259 261 263 264